Regional Weather Roundup
Issued by NWS

Home | Current Version | Previous Version | Graphics & Text | Print | Product List | Glossary On
Versions: 1 2 3 4 5 6 7 8 9 10 11 12 13 14 15 16 17 18 19 20 21 22 23 24 25 26 27 28 29 30 31 32 33 34 35 36 37 38 39 40 41 42 43 44 45 46 47 48 49 50
000
ASUS43 KFSD 211902
RWRSD

WEATHER ROUNDUP FOR SOUTH DAKOTA
NATIONAL WEATHER SERVICE SIOUX FALLS SD
200 PM CDT SUN MAY 21 2017

NOTE: "FAIR" INDICATES FEW OR NO CLOUDS BELOW 12,000 FEET WITH NO
SIGNIFICANT WEATHER AND/OR OBSTRUCTIONS TO VISIBILITY.


SDZ001>005-009-010-012>017-212000-
NORTHWEST AND NORTH CENTRAL SOUTH DAKOTA

CITY           SKY/WX    TMP DP  RH WIND       PRES   REMARKS
BUFFALO          N/A     65  37  35 NW18G26   29.99F
FAITH            N/A     64  31  28 NW14G21   30.01F
MOBRIDGE       SUNNY     67  34  29 NW10      29.96F
$$

SDZ012>016-024>037-041>051-057-063-072>074-212000-
SOUTHWEST AND SOUTH CENTRAL SOUTH DAKOTA

CITY           SKY/WX    TMP DP  RH WIND       PRES   REMARKS
RAPID CTY ARPT CLOUDY    65  36  34 N16       30.07F
PIERRE         SUNNY     64  37  36 NW15      30.02F
CUSTER         LGT RAIN  51  30  44 N9G20     30.14F
ELLSWORTH AFB  PTSUNNY   66  38  35 NW14G22   30.06F
PHILIP         SUNNY     70  33  25 NW15G24   30.03F
PINE RIDGE     PTSUNNY   63  37  38 W10       30.10F
SPEARFISH      FAIR      61  37  41 W15G23    30.10F
WINNER         FAIR      62  41  46 NW12      30.07F
$$

SDZ004>011-016>023-039-040-212000-
NORTHEAST SOUTH DAKOTA

CITY           SKY/WX    TMP DP  RH WIND       PRES   REMARKS
ABERDEEN       CLOUDY    55  38  52 N18       29.99F
WATERTOWN      LGT RAIN  47  43  86 NW17      29.96S
BROOKINGS      CLOUDY    47  39  74 NW21G32   29.98
SISSETON         N/A     49  41  74 N24G30    29.93S
$$

SDZ017-020-022-023-036>040-048>070-212000-
SOUTHEAST SOUTH DAKOTA

CITY           SKY/WX    TMP DP  RH WIND       PRES   REMARKS
SIOUX FALLS    CLOUDY    52  43  71 NW21G28   30.01S
HURON          PTSUNNY   56  41  57 N18G29    30.02S
CHAMBERLAIN    MOSUNNY   64  40  42 W17       30.05F
MITCHELL       PTSUNNY   58  41  53 NW22      30.05S
YANKTON          N/A     55  43  63 W21G28    30.06F
$$

ABBREVIATIONS USED IN REMARKS
   TC - TEMPERATURE IN CELSIUS
  WCI - WIND CHILL INDEX
   HX - HEAT INDEX
  VSB - VISIBILITY





USA.gov is the U.S. government's official web portal to all federal, state and local government web resources and services.